Location: Saint Louis
(38.6272°N, 90.1978°W)
Time: 04:11:18
(UTC-05:00)

ISS - Pass Details

Date: 22 August 2013
Orbit: 401 x 404 km, 51.6° (Epoch: 23 July)

Event Time Altitude Azimuth Distance (km) Brightness Sun altitude
Rises 21:24:03 0° 317° (NW) 2,315 2.0 -18.5°
Reaches altitude 10° 21:26:26 10° 333° (NNW) 1,454 0.3 -18.9°
Maximum altitude 21:29:03 22° 27° (NNE) 942 -1.4 -19.3°
Enters shadow 21:29:23 21° 36° (NE) 952 -1.5 -19.4°
